Location: Brno
(49.2000°N, 16.6330°E)
Time: 13:54:01
(UTC+01:00)

Cosmos 1603 - Visible Passes

Search period start: 19 January 2017 00:00
Search period end: 29 January 2017 00:00
Orbit: 833 x 858 km, 71.0° (Epoch: 18 January)

Date Brightness Start Highest point End Pass type
(mag) Time Alt. Az. Time Alt. Az. Time Alt. Az.
19 Jan 5.7 03:39:31 22° NE 03:39:33 22° NE 03:43:53 10° E visible
19 Jan 3.6 05:21:26 29° NNW 05:24:26 88° WSW 05:30:06 10° SSE visible
20 Jan 5.8 03:26:27 21° NE 03:26:27 21° NE 03:29:53 10° E visible
20 Jan 3.6 05:08:23 40° NNW 05:10:31 90° WSW 05:16:11 10° SSE visible
20 Jan 5.2 06:50:33 10° WNW 06:53:50 16° W 06:57:07 10° SW visible
20 Jan 6.0 20:00:46 10° SSW 20:01:28 14° SSW 20:01:28 14° SSW visible
21 Jan 6.1 03:13:29 18° ENE 03:13:29 18° ENE 03:15:54 10° E visible
21 Jan 3.6 04:55:25 58° NNW 04:56:35 88° ENE 05:02:15 10° SSE visible
21 Jan 5.2 06:37:22 12° WNW 06:39:56 16° W 06:43:19 10° SW visible
21 Jan 5.6 18:06:19 10° SE 18:07:07 12° ESE 18:07:07 12° ESE visible
21 Jan 5.2 19:46:51 10° SSW 19:49:06 25° SSW 19:49:06 25° SSW visible
22 Jan 6.3 03:00:38 15° ENE 03:00:38 15° ENE 03:01:54 10° E visible
22 Jan 3.6 04:42:34 85° NNE 04:42:40 86° ENE 04:48:20 10° SSE visible
22 Jan 5.1 06:24:31 15° W 06:26:02 17° W 06:29:31 10° SW visible
22 Jan 5.3 17:52:34 10° SE 17:54:43 14° ESE 17:54:43 14° ESE visible
22 Jan 4.4 19:32:56 10° SSW 19:36:41 44° SSW 19:36:41 44° SSW visible
23 Jan 6.6 02:47:53 10° E 02:47:53 10° E 02:47:54 10° E visible
23 Jan 4.0 04:29:50 60° SE 04:29:50 60° SE 04:34:24 10° SSE visible
23 Jan 5.1 06:11:47 17° W 06:12:08 18° W 06:15:44 10° SW visible
23 Jan 5.3 17:38:48 10° SE 17:41:25 14° E 17:42:15 13° E visible
23 Jan 3.6 19:19:01 10° SSW 19:24:13 75° SSE 19:24:13 75° SSE visible
23 Jan 6.2 21:04:56 10° W 21:06:11 15° W 21:06:11 15° W visible
24 Jan 4.8 04:17:12 36° SE 04:17:12 36° SE 04:20:29 10° SSE visible
24 Jan 5.2 05:59:10 17° WSW 05:59:10 17° WSW 06:01:56 10° SW visible
24 Jan 5.4 17:25:04 10° ESE 17:27:32 13° E 17:29:42 11° ENE visible
24 Jan 3.5 19:05:06 10° SSW 19:10:41 78° ESE 19:11:40 61° NE visible
24 Jan 5.9 20:50:56 10° W 20:53:37 21° WNW 20:53:37 21° WNW visible
25 Jan 5.5 04:04:40 22° SSE 04:04:40 22° SSE 04:06:33 10° SSE visible
25 Jan 5.4 05:46:39 15° SW 05:46:39 15° SW 05:48:07 10° SW visible
25 Jan 5.4 17:11:20 10° ESE 17:13:38 13° E 17:15:56 10° ENE visible
25 Jan 3.5 18:51:11 10° SSW 18:56:46 76° ESE 18:59:00 38° NE visible
25 Jan 5.6 20:36:57 10° W 20:40:57 24° NW 20:40:57 24° NW visible
26 Jan 6.1 03:52:14 12° SSE 03:52:14 12° SSE 03:52:37 10° SSE visible
26 Jan 5.8 05:34:12 10° SW 05:34:12 10° SW 05:34:18 10° SW visible
26 Jan 3.6 18:37:16 10° SSW 18:42:51 74° ESE 18:46:14 25° NE visible
26 Jan 5.5 20:22:57 10° W 20:27:33 25° NW 20:28:11 25° NNW visible
27 Jan 3.6 18:23:21 10° SSW 18:28:55 72° ESE 18:33:22 17° NNE visible
27 Jan 5.5 20:08:58 10° W 20:13:36 26° NW 20:15:18 22° NNW visible
28 Jan 3.6 18:09:26 10° SSW 18:15:00 70° ESE 18:20:23 11° NNE visible
28 Jan 5.5 19:54:58 10° W 19:59:39 26° NW 20:02:19 19° N visible
